Home   Weather   Ruhengeri   Past weeks
Flag for Rwanda

Past Weather in Ruhengeri, Rwanda — Yesterday and Last 2 Weeks

Now
64 °F

Passing clouds.


Feels Like: 64 °F
Forecast: 88 / 60 °F
Wind: 6 mph from Northwest

Location: Kigali Airport

Current Time: Mar 21, 2019 at 3:41:01 am

Latest Report: Mar 21, 2019 at 2:30 am


Visibility: N/A

Pressure: 30.04 "Hg (24.20 "Hg at 1841m altitude)

Humidity: 83%

Dew Point: 59 °F

Location of RuhengeriLocation

Past Weather in Ruhengeri — Graph

°F

Ruhengeri Temperature Yesterday

Maximum temperature yesterday: 88 °F (at 2:30 pm)
Minimum temperature yesterday: 63 °F (at 2:00 am)
Average temperature yesterday: 72 °F

High & Low Weather Summary for the Past Weeks

 TemperatureHumidityPressure
High88 °F (Mar 9, 2:30 pm)100% (Mar 7, 1:30 am)30.30 "Hg (Mar 7, 1:30 am)
Low59 °F (Mar 15, 4:00 am)27% (Mar 20, 2:30 pm)29.95 "Hg (Mar 20, 2:30 pm)
Average70 °F72%30.11 "Hg
* Reported Mar 6 2:00 am — Mar 21 2:00 am, Ruhengeri. Weather by CustomWeather, © 2019

Note: Actual official high and low records may vary slightly from our data, if they occured in-between our weather recording intervals... More about our weather records

Advertising

Ruhengeri Weather History for the Previous 24 Hours

Scroll right to see more
 ConditionsComfort  
Time TempWeatherWind HumidityBarometerVisibility
2:00 am
Thu, Mar 21
64 °FPassing clouds.6 mph83%30.04 "HgN/A
1:30 am64 °FPassing clouds.3 mph88%30.07 "HgN/A
1:00 am66 °FPassing clouds.3 mph83%30.04 "HgN/A
12:30 am66 °FPassing clouds.5 mph78%30.07 "HgN/A
12:00 am64 °FPassing clouds.3 mph88%30.07 "HgN/A
11:30 pm
Wed, Mar 20
68 °FPassing clouds.3 mph78%30.07 "HgN/A
11:00 pm68 °FPassing clouds.2 mph73%30.09 "HgN/A
10:30 pm68 °FPassing clouds.3 mph73%30.09 "HgN/A
10:00 pm70 °FPassing clouds.5 mph69%30.07 "HgN/A
9:30 pm72 °FPassing clouds.3 mph65%30.07 "HgN/A
9:00 pm72 °FPassing clouds.3 mph65%30.07 "HgN/A
8:30 pm70 °FPassing clouds.5 mph69%30.04 "HgN/A
8:00 pm70 °FPassing clouds.6 mph69%30.04 "HgN/A
7:30 pm72 °FPassing clouds.12 mph69%30.01 "HgN/A
7:00 pm72 °FPassing clouds.9 mph65%30.01 "HgN/A
6:30 pm73 °FPassing clouds.10 mph61%29.98 "HgN/A
6:00 pm75 °FScattered clouds.3 mph57%29.98 "HgN/A
5:30 pm79 °FScattered clouds.5 mph45%29.95 "HgN/A
5:00 pm81 °FScattered clouds.6 mph45%29.95 "HgN/A
4:30 pm79 °FThunderstorms. Scattered clouds.10 mph45%29.95 "HgN/A
4:00 pm75 °FRain. Passing clouds.15 mph50%29.95 "HgN/A
3:30 pm88 °FScattered clouds.10 mph33%29.95 "HgN/A
3:00 pm86 °FScattered clouds.13 mph31%29.95 "HgN/A
2:30 pm88 °FScattered clouds.7 mph27%29.95 "HgN/A
2:00 pm84 °FScattered clouds.7 mph35%29.98 "HgN/A
1:30 pm84 °FScattered clouds.6 mph40%30.01 "HgN/A
1:00 pm84 °FPartly sunny.7 mph40%30.01 "HgN/A
12:00 pm84 °FScattered clouds.7 mph43%30.07 "HgN/A
11:30 am82 °FScattered clouds.5 mph48%30.09 "HgN/A
11:00 am81 °FScattered clouds.5 mph51%30.09 "HgN/A
10:30 am79 °FBroken clouds.2 mph58%30.12 "HgN/A
10:00 am77 °FBroken clouds.2 mph57%30.12 "HgN/A
9:00 am73 °FScattered clouds.No wind65%30.12 "HgN/A
8:00 am66 °FBroken clouds.No wind83%30.12 "HgN/A
7:30 am64 °FBroken clouds.No wind88%30.09 "Hg6 mi
7:00 am63 °FScattered clouds.3 mph88%30.09 "Hg6 mi
6:30 am63 °FScattered clouds.2 mph88%30.07 "HgN/A
6:00 am63 °FPartly cloudy.3 mph88%30.07 "HgN/A
5:30 am63 °FPartly cloudy.2 mph88%30.07 "HgN/A
5:00 am63 °FPartly cloudy.1 mph88%30.04 "HgN/A
4:30 am63 °FPassing clouds.No wind88%30.04 "HgN/A
4:00 am63 °FPassing clouds.No wind88%30.04 "HgN/A
3:30 am63 °FPassing clouds.1 mph88%30.04 "HgN/A
3:00 am63 °FPassing clouds.3 mph88%30.01 "HgN/A
Weather by CustomWeather, © 2019

See weather overview